Torna al catalogo

STARLINK-11620

AttivoComunicazioniVLEO
NORAD 63271·PAYLOAD·🇺🇸 United States

Lanciato Mar 15, 2025 da Cape Canaveral Space Force Station

Loading…

Prossimi Passaggi (prossime 24 ore)

TLE

AggiornatoSource: CelesTrak SupGP

Epoca: Sep 15, 2026, 03:07 UTC

1 63271C 25053G   26258.13034722 -.00058996  00000+0 -45866-3 0  2587
2 63271  43.0011  50.7519 0001745 280.9283 273.1294 15.70844641    15

Traccia STARLINK-11620 in tempo reale con AllMySat

Download on the App Store